HARP (45256 NORAD) Tracking and Keplerian Element Data

This shows tracking and keplerian element data for the satellite.

Feedback or suggestion? Click here.




ElementValue
Catalog45256
NameHARP
Epoch Orbit588
Epoch Day88.10926042
Epoch Year2020
RAAN29.4235
Inclination51.6436
Eccentricity0.0008455
Argument of Perigee60.9178
Mean Anonmoly299.2657
Mean Motion15.5017815
Decay Rate6.444E-05
L11 45256U 98067QZ 20088.10926042 .00006444 00000-0 12000-3 0 9998
L22 45256 51.6436 29.4235 0008455 60.9178 299.2657 15.50178150 5881

Live tracking and technical data element details for HARP (NORAD 45256). HARP can be tracked NOW for your location showing map with azimuth and elevation plus other details from your city location.

Track the satellite on the map from your city or location and see movement details for azimuth, elevation, latitude, longitude, range, height, and movement on the map or in text.







IsCatalogInMostPopularTable: catalog: 45256, numindb: 9
Update: records affected: 1



GetName: 45256 HARP

Hit Count: updated at: Tue, 31 Mar 2020 12:07:44 GMT